Starlink 11718

operational
NORAD ID: 64132 Int'l Des: 2025-111 Owner: SPXS Country: US Constellation: starlink
LEOCIRCULAR

About Starlink 11718

Description loading...

Live Position

Loading 3D Globe...

Upcoming Passes

Altitude History

Altitude vs Time

uPlot chart will show altitude changes over time

Two-Line Element Set

1 64132U 25111K 25351.78355678 .00262235 00000-0 19768-2 0 9994
2 64132 42.9995 107.8854 0001323 297.8445 62.2289 15.70918584 33808
Epoch: Dec 17, 2025 • Age: 28 hours

Current Status

Altitude 356.0 km
Velocity 7.70 km/s
Sub-Earth Point 33.33°N, 80.28°E
Launch Date May 24, 2025
Age 0.5 years
Type internet

Technical Details

Classification Payload
Mass 960.00 kg
Dry Mass 910.00 kg
Total Mass 960.00 kg
Length 0.30 m
Diameter 4.10 m
Span 29.00 m
Shape Box + pan
Manufacturer SPXS
Bus Type Starlink V2MD
Phase Status In Orbit
Owner/State SPXS/US

Large Constellations

Loading constellations...